Lapse_Rate
4.3 4.3 4.4 4.6 4.7 5.0 5.4 5.8 6.3 6.5 6.6 6.8 6.9 7.2 7.0 7.1 7.2 7.2 7.3 7.1 7.2 7.3 6.8 6.9 6.7 7.0 7.1 7.0 7.0 7.1 6.9 6.9
4.0 4.2 4.1 4.2 4.5 4.7 4.8 5.2 5.7 6.2 6.6 6.6 6.9 6.9 7.1 6.8 7.1 7.2 7.2 7.3 7.2 7.2 7.3 6.7 6.9 6.7 6.8 6.9 6.9 7.2 7.0 6.9
3.5 3.5 3.7 3.9 3.9 3.9 4.1 4.4 4.8 5.1 5.5 6.0 6.4 6.6 6.6 6.7 6.7 7.0 7.1 7.0 7.1 7.0 7.1 7.2 6.8 6.6 6.5 6.7 7.0 7.2 7.0 7.0
3.8 3.8 3.9 4.0 4.1 4.3 4.3 4.3 4.5 4.7 5.1 5.5 5.8 6.1 6.6 6.6 6.6 6.8 6.4 6.8 7.0 6.9 6.7 6.8 6.8 6.7 6.5 6.2 6.7 6.9 7.0 7.0
3.7 3.9 4.1 4.2 4.4 4.6 4.7 4.9 5.0 4.9 5.1 5.2 5.5 5.8 6.1 6.6 6.6 6.6 6.4 6.2 6.4 6.7 6.8 6.4 6.7 6.7 6.2 6.3 6.8 6.9 7.1 7.0
4.2 4.5 4.5 4.5 4.5 4.6 4.7 4.8 5.1 5.3 5.3 5.2 5.5 5.7 5.9 6.0 6.5 6.7 6.5 6.1 6.3 6.4 6.4 6.2 6.6 6.5 6.4 6.4 6.3 6.9 6.8 7.2
4.9 5.0 5.0 4.9 4.7 4.8 4.9 4.9 4.9 5.1 5.3 5.5 5.5 5.8 6.1 6.1 6.1 6.3 6.5 6.2 5.6 5.7 6.2 5.9 6.2 6.3 6.1 6.1 6.1 6.5 6.8 6.7
5.0 4.9 5.0 5.0 4.9 4.8 5.0 5.1 5.2 5.3 5.4 5.5 5.5 6.0 6.2 6.3 6.0 6.0 6.1 6.3 6.2 5.6 5.5 5.6 6.2 6.1 5.8 6.1 6.1 6.3 6.6 6.5
5.4 5.4 5.4 5.4 5.5 5.4 5.2 5.2 5.2 5.3 5.6 5.7 5.8 5.8 6.6 6.7 6.4 6.0 5.8 5.9 6.1 5.9 5.5 5.9 6.0 5.6 5.6 5.8 5.8 6.0 6.0 6.5
5.5 5.6 5.7 5.6 5.6 5.6 5.4 5.3 5.3 5.4 5.5 5.9 6.1 6.1 6.4 6.9 7.1 6.2 5.7 5.7 6.0 5.9 5.8 6.0 5.3 5.5 5.4 5.4 5.1 5.6 5.6 6.3
5.5 5.6 5.7 5.7 5.7 5.6 5.6 5.6 5.5 5.4 5.4 5.7 6.1 6.2 6.8 7.0 7.4 6.8 6.1 5.7 5.8 6.0 5.9 5.8 6.0 4.9 4.8 5.4 5.4 4.9 5.4 5.8
5.5 5.6 5.6 5.6 5.7 5.5 5.6 5.6 5.6 5.6 5.3 5.5 5.9 6.1 6.7 7.3 7.4 7.2 6.8 5.8 6.0 5.6 5.9 6.0 5.7 5.6 5.4 4.7 5.4 5.0 4.8 5.6
5.7 5.7 5.6 5.6 5.6 5.5 5.6 5.4 5.4 5.5 5.4 5.4 5.5 6.1 6.4 7.0 7.3 7.3 7.0 6.6 6.5 6.0 5.3 5.1 5.5 4.9 5.1 4.9 5.6 5.1 4.9 5.1
5.7 5.6 5.6 5.5 5.3 5.4 5.3 5.2 5.2 5.3 5.4 5.4 5.5 5.9 6.6 7.0 7.2 7.2 7.0 6.7 6.6 6.7 5.7 5.2 5.3 5.2 4.8 5.1 5.0 5.1 4.9 4.8
5.6 5.6 5.5 5.3 5.2 5.2 5.2 5.0 5.2 5.4 5.5 5.6 5.7 6.1 6.9 7.3 7.3 7.1 6.9 6.8 6.7 6.9 6.5 5.8 5.5 5.3 5.5 5.9 5.2 5.0 4.7 5.5
5.6 5.3 5.2 5.0 5.0 4.9 4.9 4.9 5.3 5.6 5.6 5.8 6.6 7.1 7.3 7.3 7.5 7.1 6.9 6.7 6.7 6.6 6.6 6.1 5.9 5.4 5.7 5.3 5.7 5.4 5.1 5.5
5.5 5.2 4.9 4.9 4.9 5.1 5.0 5.1 5.5 5.7 5.8 6.9 7.6 7.4 7.3 7.3 7.4 7.1 6.8 6.7 6.6 6.4 6.5 6.3 5.8 5.5 5.3 5.8 5.7 5.9 5.9 5.5
5.4 5.1 4.7 4.9 5.2 5.1 5.1 5.4 5.7 6.0 6.5 7.5 7.8 7.4 7.2 7.2 7.2 7.0 6.8 6.6 6.5 6.3 6.3 6.3 5.9 5.5 5.3 5.5 5.4 5.3 5.2 5.4
5.4 4.6 4.6 5.1 5.3 5.3 5.3 5.6 5.8 6.1 6.9 7.6 7.5 7.3 7.2 7.1 7.1 7.0 6.8 6.6 6.3 6.3 6.2 6.2 6.0 5.6 5.2 5.1 5.3 5.0 5.8 5.2
4.7 4.3 4.9 5.3 5.5 5.5 5.5 5.7 5.9 6.0 7.0 7.6 7.2 7.1 7.0 6.8 6.9 6.8 6.6 6.4 6.2 6.0 6.1 6.1 6.1 5.8 5.3 5.3 5.2 5.7 6.0 4.8
Wind_Speed
22 23 27 27 29 32 32 33 33 33 34 36 34 31 31 31 31 30 30 26 21 19 19 18 18 19 20 24 23 20 14 13
20 21 24 26 24 29 31 28 31 32 34 35 33 31 30 30 31 30 31 27 25 18 18 21 19 20 18 24 25 20 14 13
21 21 21 22 23 25 24 25 26 27 29 33 29 26 28 26 26 29 31 29 27 23 19 15 20 20 19 21 22 14 13 13
15 17 19 21 22 22 21 22 20 20 23 25 24 24 27 28 26 29 27 31 27 28 23 18 14 11 13 15 13 16 14 14
13 17 19 20 20 20 19 19 18 16 21 22 22 21 23 22 22 22 23 25 21 23 20 16 15 9 10 12 12 15 14 12
9 16 16 18 17 17 17 17 18 14 18 22 21 17 18 18 18 22 21 22 19 18 15 17 17 17 12 11 14 13 15 12
7 14 15 17 17 17 16 16 16 15 17 21 22 17 13 15 17 19 20 21 17 11 17 10 12 12 17 11 9 13 16 16
7 9 15 18 14 16 15 15 15 15 17 19 24 19 17 13 16 17 20 22 23 19 13 10 11 9 14 10 11 13 16 18
6 6 13 13 13 15 15 14 16 14 15 19 23 21 20 17 14 14 18 23 21 18 15 13 9 9 14 12 9 11 12 15
6 8 10 12 13 16 15 15 15 13 14 15 20 19 21 18 13 13 19 20 19 11 10 10 10 9 8 10 8 9 11 13
5 7 7 10 12 13 14 14 13 13 15 13 19 18 19 17 16 16 19 14 12 11 10 9 10 11 8 8 7 9 10 10
5 5 7 10 10 11 10 10 11 15 14 16 20 16 17 15 15 16 17 8 9 11 13 11 9 9 11 10 8 6 8 9
6 6 6 4 2 4 4 5 4 9 16 18 19 18 17 17 15 15 16 10 11 11 10 12 9 11 7 2 2 3 3 6
6 6 5 4 2 3 3 3 3 6 12 14 17 17 18 17 16 12 13 9 11 11 12 10 7 9 6 6 4 3 2 4
5 6 6 5 9 5 5 5 5 3 6 8 16 16 17 18 17 15 11 9 8 10 12 13 8 7 9 3 3 2 0 2
5 6 6 7 11 5 6 4 4 3 3 6 13 17 16 18 16 14 11 9 9 7 8 10 10 10 8 7 5 5 4 3
5 5 7 7 7 5 4 5 3 4 5 7 6 14 17 18 18 15 11 8 8 9 11 11 8 7 8 8 8 7 11 3
5 6 5 7 6 5 7 7 7 7 8 6 6 7 10 17 18 15 15 12 8 8 11 10 9 8 8 8 6 5 9 4
4 6 6 7 6 5 7 7 7 8 8 6 8 8 8 9 16 12 11 15 13 12 10 10 8 9 9 7 6 6 6 7
5 5 6 6 5 7 6 7 5 5 6 6 7 7 7 14 13 14 13 14 11 14 7 9 9 8 10 9 8 7 5 5
Wind_Direction
14 8 12 10 14 14 13 17 17 17 14 12 6 1 357 353 354 353 354 354 339 326 243 224 218 206 189 179 185 172 159 161
9 7 10 8 7 8 11 9 13 15 15 13 10 9 359 354 348 348 349 350 347 333 337 235 220 216 199 186 186 191 169 168
12 11 13 9 8 4 1 3 8 16 13 11 10 5 360 355 346 346 344 344 347 349 331 321 220 221 204 196 176 186 167 171
8 8 11 10 8 2 358 358 4 9 12 9 5 3 2 359 351 350 348 341 345 344 343 335 269 201 202 190 194 179 180 176
2 9 13 11 9 1 359 1 6 9 11 9 3 0 358 0 355 350 347 347 341 338 342 333 341 237 193 181 189 189 183 182
354 14 13 11 11 5 360 4 7 13 10 7 2 359 358 357 356 352 352 351 337 334 324 326 322 330 222 185 181 199 177 181
353 18 13 11 12 3 3 3 4 12 8 4 1 354 348 353 354 353 353 350 342 351 313 335 322 320 284 204 187 191 193 173
342 13 18 19 7 358 355 1 1 10 4 1 355 346 343 348 354 352 351 346 336 339 345 329 323 315 299 223 193 188 190 191
358 3 17 18 4 359 360 359 10 10 1 3 356 349 345 333 353 354 350 344 339 336 330 335 318 304 319 227 204 187 183 185
353 8 8 13 4 357 352 358 12 4 359 360 356 349 349 341 352 352 352 349 341 344 342 333 329 319 295 272 205 187 187 172
356 359 358 357 356 349 347 355 7 2 351 350 350 351 351 352 1 350 348 351 347 344 336 340 324 312 319 299 223 195 186 173
356 354 351 350 342 341 338 347 0 358 347 352 345 336 351 344 356 348 349 347 352 351 338 341 319 323 322 305 239 191 181 175
358 345 343 355 326 344 348 350 336 357 355 349 344 339 350 357 356 354 348 345 347 354 345 336 344 340 308 304 341 164 140 167
345 351 353 349 345 326 338 333 323 338 343 344 342 343 357 354 355 352 346 342 342 347 353 348 339 346 327 285 284 184 206 190
344 351 1 4 358 349 356 332 318 327 346 351 343 332 358 351 356 354 346 345 341 345 349 353 337 336 327 285 345 292 343 203
9 16 9 2 6 18 11 331 325 302 306 324 334 331 339 350 339 342 349 344 339 344 352 345 337 339 347 353 343 301 305 187
17 22 15 2 9 21 335 329 294 294 309 323 327 339 330 335 344 343 341 346 345 349 358 346 335 331 337 339 324 309 256 244
33 22 3 1 3 341 331 321 318 326 332 329 332 338 332 332 339 348 351 349 346 1 350 343 333 336 332 335 332 324 334 338
19 17 356 346 355 302 334 330 320 324 333 326 336 341 339 334 339 353 356 355 355 357 343 344 339 334 329 324 317 325 317 303
17 358 352 345 337 332 334 338 342 349 342 333 340 337 330 335 339 347 347 347 357 357 342 349 340 331 324 326 324 319 310 291